Home   Weather   Key West   Past weeks

Flag for USA Past Weather in Key West, Florida, USA — Yesterday and Last 2 Weeks

Now
70 °F

Clear.


Feels Like: 68 °F
Forecast: 69 / 78 °F
Wind: 3 mph from East

Location: Key West International Airport

Current Time: Jan 18, 2017 at 11:53:54 pm

Latest Report: Jan 18, 2017 at 10:53 pm


Visibility: 10 mi

Pressure: 30.11 "Hg

Humidity: 87%

Dew Point: 66 °F

Location of Key WestLocation

Past Weather in Key West — Graph

°F

Key West Temperature Yesterday

Maximum temperature yesterday: 80 °F (at 1:53 pm)
Minimum temperature yesterday: 73 °F (at 12:42 am)
Average temperature yesterday: 76 °F

High & Low Weather Summary for the Past Weeks

 TemperatureHumidityPressure
High81 °F (Jan 6, 1:53 pm)100% (Jan 14, 10:53 am)30.47 "Hg (Jan 14, 10:53 am)
Low57 °F (Jan 8, 3:53 am)49% (Jan 9, 3:53 pm)29.88 "Hg (Jan 4, 5:53 pm)
Average73 °F77%30.17 "Hg
* Reported Jan 3 9:53 pm — Jan 18 9:53 pm, Key West, Weather by CustomWeather, © 2017

Note: Actual official high and low records may vary slightly from our data, if they occured in-between our weather recording intervals... More about our weather records

Advertising

Key West Weather History for the Previous 24 Hours

Scroll right to see more
 ConditionsComfort  
Time TempWeatherWind HumidityBarometerVisibility
9:53 pm
Wed, Jan 18
72 °FClear.3 mph81%30.13 "Hg10 mi
8:53 pm73 °FClear.3 mph79%30.13 "Hg10 mi
7:53 pm73 °FClear.5 mph76%30.13 "Hg10 mi
6:53 pm74 °FClear.5 mph74%30.11 "Hg10 mi
4:53 pm78 °FSunny.7 mph64%30.11 "Hg10 mi
3:53 pm79 °FSunny.7 mph62%30.11 "Hg10 mi
2:53 pm80 °FSunny.7 mph60%30.10 "Hg10 mi
1:53 pm80 °FSunny.9 mph62%30.11 "Hg10 mi
12:53 pm75 °FPassing clouds.10 mph69%30.14 "Hg10 mi
11:53 am79 °FPassing clouds.13 mph65%30.16 "Hg10 mi
10:53 am79 °FPassing clouds.12 mph65%30.19 "Hg10 mi
9:53 am78 °FPassing clouds.10 mph64%30.19 "Hg10 mi
8:53 am77 °FSunny.8 mph66%30.19 "Hg10 mi
7:53 am75 °FSunny.10 mph66%30.16 "Hg10 mi
6:53 am75 °FPassing clouds.13 mph71%30.16 "Hg10 mi
5:53 am75 °FPassing clouds.10 mph76%30.15 "Hg10 mi
4:53 am75 °FPassing clouds.12 mph76%30.14 "Hg10 mi
3:53 am75 °FPassing clouds.10 mph76%30.14 "Hg10 mi
2:53 am75 °FClear.12 mph76%30.15 "Hg10 mi
1:53 am75 °FPassing clouds.13 mph76%30.17 "Hg10 mi
12:53 am75 °FPassing clouds.12 mph76%30.18 "Hg10 mi
11:53 pm
Tue, Jan 17
75 °FClear.10 mph79%30.19 "Hg10 mi
Weather by CustomWeather, © 2017

See weather overviewHow to use our weather pages